Date,TemperatureHighF,TemperatureAvgF,TemperatureLowF,DewpointHighF,DewpointAvgF,DewpointLowF,HumidityHigh,HumidityAvg,HumidityLow,PressureMaxIn,PressureMinIn,WindSpeedMaxMPH,WindSpeedAvgMPH,GustSpeedMaxMPH,PrecipitationSumIn
2013-3-1,23.4,20.5,12.3,21.3,17.2,9.9,93,87,77,30.37,30.19,12,8,16,0.00
2013-3-2,36.3,17.2,1.0,22.5,12.8,-1.5,94,84,55,30.35,30.13,5,2,15,0.00
2013-3-3,33.5,25.4,18.6,26.8,22.0,16.8,94,87,74,30.13,29.82,10,7,14,0.00
2013-3-4,28.9,27.0,24.9,28.3,26.1,23.5,98,96,94,29.96,29.74,11,5,15,0.00
2013-3-5,28.7,24.6,19.5,27.8,22.0,17.3,98,90,85,30.31,29.92,19,11,26,0.00
2013-3-6,30.2,22.0,18.5,23.7,18.9,16.8,93,88,72,30.43,30.31,11,5,26,0.00
2013-3-7,32.0,22.2,13.1,27.0,19.6,11.7,95,90,79,30.33,30.20,10,6,12,0.01
2013-3-8,39.2,28.8,18.4,34.1,26.5,17.2,97,91,81,30.26,29.97,10,5,11,0.31
2013-3-9,39.1,35.1,31.8,39.1,35.0,31.8,100,100,97,29.97,29.59,15,7,21,0.71
2013-3-10,31.8,27.4,22.7,31.8,27.0,22.0,100,98,97,29.88,29.70,25,20,34,0.01
2013-3-11,28.3,23.4,19.2,23.3,20.5,16.2,97,89,77,29.91,29.80,19,11,34,0.00
2013-3-12,27.9,24.1,19.6,26.6,21.0,15.7,96,88,81,30.25,29.90,19,13,24,0.00
2013-3-13,30.6,20.0,10.2,22.5,16.0,8.1,94,85,67,30.43,30.24,15,4,24,0.00
2013-3-14,46.7,33.1,22.5,40.6,29.3,20.0,98,86,74,30.24,30.00,7,3,8,0.00
2013-3-15,39.7,34.8,32.6,36.0,33.5,31.7,99,95,86,30.00,29.71,10,4,13,0.00
2013-3-16,32.5,25.2,17.7,32.3,22.8,14.2,99,90,84,30.22,29.81,15,11,21,0.00
2013-3-17,31.3,22.6,11.8,28.8,18.6,8.4,95,85,75,30.22,29.77,11,8,19,0.00
2013-3-18,32.2,21.6,13.2,31.7,17.4,7.8,98,84,71,29.97,29.64,23,16,30,0.00
2013-3-19,29.2,17.2,8.1,23.0,11.5,4.0,87,78,65,30.31,29.95,15,10,27,0.00
2013-3-20,24.0,15.7,8.7,14.2,8.8,4.0,84,74,62,30.36,30.16,17,12,23,0.00
2013-3-21,33.0,18.1,4.7,19.4,10.8,1.5,90,74,51,30.17,30.01,8,2,23,0.00
2013-3-22,36.5,23.9,11.7,22.0,17.4,10.1,95,78,53,30.09,30.02,4,1,6,0.00
2013-3-23,31.1,26.9,21.6,23.7,21.7,18.8,94,81,65,30.15,30.04,12,5,15,0.00
2013-3-24,30.7,25.8,21.0,26.7,22.9,17.7,97,89,80,30.09,29.95,14,11,19,0.00
2013-3-25,33.5,26.6,21.3,26.4,22.6,18.0,96,85,68,30.28,30.02,17,12,22,0.00
2013-3-26,42.2,26.5,16.6,27.2,20.4,13.9,93,79,50,30.33,30.25,9,4,22,0.00
2013-3-27,41.5,32.0,21.5,32.1,27.1,19.0,96,83,62,30.30,30.23,5,2,10,0.00
2013-3-28,46.0,36.5,28.3,39.2,32.7,26.1,95,86,74,30.27,30.18,6,3,8,0.00
2013-3-29,53.1,42.2,33.5,42.6,37.1,31.4,93,83,65,30.21,29.97,9,5,13,0.00
2013-3-30,58.1,48.0,33.7,49.8,41.8,32.7,97,80,58,29.97,29.80,24,8,28,0.00
2013-3-31,39.1,33.1,22.9,33.9,28.4,17.2,99,84,56,30.12,29.83,18,10,26,0.00